This demonstration page uses our WeatherBlox Daily Observations layout. Learn more.

Left ArrowRight Arrow

Hourly Observations for November 28, 2015

Temp ( °F °C ) Dew Point ( °F °C ) Humidity (%) Winds ( mph kmh ) Pressure ( in mb ) Visibility ( mi km ) Precip ( " mm )
12:53 am 00:53 Clear 45 7.2 13 -10.6 27 27 N 9 15 30.19 1022 10 16 0.00 0.00
1:53 am 01:53 Clear 43 6.1 14 -10 31 31 N 7 11 30.21 1023 10 16 0.00 0.00
2:53 am 02:53 Clear 42 5.6 14 -10 32 32 N 7 11 30.22 1023 10 16 0.00 0.00
3:53 am 03:53 Clear 40 4.4 14 -10 35 35 N 7 11 30.21 1023 10 16 0.00 0.00
4:53 am 04:53 Clear 42 5.6 12 -11.1 29 29 N 9 15 30.20 1023 10 16 0.00 0.00
5:53 am 05:53 Clear 41 5 12 -11.1 30 30 N 9 15 30.19 1023 10 16 0.00 0.00
6:53 am 06:53 Clear 43 6.1 11 -11.7 27 27 N 10 17 30.20 1023 10 16 0.00 0.00
7:53 am 07:53 Sunny 44 6.7 10 -12.2 25 25 N 7 11 30.20 1023 10 16 0.00 0.00
8:53 am 08:53 Sunny 46 7.8 11 -11.7 24 24 N 9 15 30.21 1023 10 16 0.00 0.00
9:53 am 09:53 Sunny 49 9.4 11 -11.7 21 21 N 12 19 30.21 1023 10 16 0.00 0.00
10:53 am 10:53 Sunny 51 10.6 12 -11.1 21 21 NNE 10 17 30.20 1023 10 16 0.00 0.00
11:53 am 11:53 Sunny 53 11.7 11 -11.7 18 18 N 10 17 30.17 1022 10 16 0.00 0.00
12:53 pm 12:53 Sunny 55 12.8 11 -11.7 17 17 NNE 7 11 30.14 1021 10 16 0.00 0.00
1:53 pm 13:53 Sunny 56 13.3 11 -11.7 17 17 NE 7 11 30.13 1020 10 16 0.00 0.00
2:53 pm 14:53 Sunny 56 13.3 11 -11.7 17 17 VRB 6 9 30.12 1020 10 16 0.00 0.00
3:53 pm 15:53 Sunny 55 12.8 13 -10.6 19 19 N 7 11 30.11 1020 10 16 0.00 0.00
4:53 pm 16:53 Clear 49 9.4 16 -8.9 27 27 N 3 6 30.12 1020 10 16 0.00 0.00
5:53 pm 17:53 Clear 45 7.2 17 -8.3 33 33 NNW 5 7 30.13 1020 10 16 0.00 0.00
6:53 pm 18:53 Clear 45 7.2 17 -8.3 33 33 N 6 9 30.13 1020 10 16 0.00 0.00
7:53 pm 19:53 Clear 37 2.8 21 -6.1 52 52 Calm 30.15 1021 10 16 0.00 0.00
8:53 pm 20:53 Clear 34 1.1 21 -6.1 59 59 Calm 30.17 1022 10 16 0.00 0.00
9:53 pm 21:53 Clear 31 -0.6 21 -6.1 67 67 Calm 30.17 1022 9 14 0.00 0.00
10:53 pm 22:53 Clear 31 -0.6 20 -6.7 64 64 NE 3 6 30.18 1022 10 16 0.00 0.00
11:53 pm 23:53 Clear 30 -1.1 21 -6.1 69 69 W 5 7 30.19 1022 10 16 0.00 0.00

Powered by AerisWeather